Location: Gerlach
(40.6516°N, 119.3568°W)
Time: 10:41:23
(UTC-07:00)

AO-85 - Visible Passes

Search period start: 25 June 2024 00:00
Search period end: 05 July 2024 00:00
Orbit: 489 x 755 km, 64.8° (Epoch: 24 June)

Date Brightness Start Highest point End Pass type
(mag) Time Alt. Az. Time Alt. Az. Time Alt. Az.
30 Jun ? 04:43:14 10° SE 04:45:01 12° ESE 04:46:51 10° E visible
03 Jul ? 03:57:35 10° SE 03:59:41 13° ESE 04:01:52 10° ENE visible
04 Jul ? 04:13:39 10° S 04:17:29 28° ESE 04:21:35 10° NE visible
